Time,TemperatureC,DewpointC,PressurehPa,WindDirection,WindDirectionDegrees,WindSpeedKMH,WindSpeedGustKMH,Humidity,HourlyPrecipMM,Conditions,Clouds,dailyrainMM,SolarRadiationWatts/m^2,UVIndex,SoftwareType,DateUTC
2026-09-01 09:14:28,6.4,4.7,992.1,North,0,0,1.9,89,0.0,,,0.0,0,0,n/a,2026-08-31T21:14:28Z
2026-09-01 09:26:29,6.4,4.7,992.1,North,0,0,0,89,0.0,,,0.0,0,0,n/a,2026-08-31T21:26:29Z
2026-09-01 09:39:57,7.1,3.3,1010.5,West,264,3.8,9.3,77,0.0,,,0.0,425,1.1,n/a,2026-08-31T21:39:57Z
2026-09-01 09:44:57,7.4,3.3,1010.4,West,264,3.9,9.7,75.2,0.0,,,0.0,439,1.2,n/a,2026-08-31T21:44:57Z
2026-09-01 09:49:56,7.8,3.4,1010.5,West,269,3.7,6.4,73.8,0.0,,,0.0,452,1.3,n/a,2026-08-31T21:49:56Z
2026-09-01 09:54:56,8.1,3.3,1010.5,West,275,4.5,11.3,71.8,0.0,,,0.0,466,1.3,n/a,2026-08-31T21:54:56Z
2026-09-01 09:59:54,8.4,3.3,1010.6,West,271,2.9,6.4,70.2,0.0,,,0.0,487,1.4,n/a,2026-08-31T21:59:54Z
2026-09-01 10:04:59,8.7,3.3,1010.7,West,275,2.4,5.6,68.9,0.0,,,0.0,497,1.4,n/a,2026-08-31T22:04:59Z
2026-09-01 10:09:56,9,3.1,1010.6,WSW,248,2.3,6.4,66.4,0.0,,,0.0,496,1.5,n/a,2026-08-31T22:09:56Z
2026-09-01 10:14:54,9.3,2.9,1010.6,West,272,3.5,9.7,64.2,0.0,,,0.0,503,1.6,n/a,2026-08-31T22:14:54Z
2026-09-01 10:19:59,9.6,2.8,1010.6,WSW,239,1.7,5.6,62.9,0.0,,,0.0,513,1.6,n/a,2026-08-31T22:19:59Z
2026-09-01 10:24:58,9.8,2.8,1010.5,West,267,4.1,9.7,61.8,0.0,,,0.0,522,1.7,n/a,2026-08-31T22:24:58Z
2026-09-01 10:29:57,10,2.3,1010.6,NW,312,2.3,6.4,58.8,0.0,,,0.0,533,1.8,n/a,2026-08-31T22:29:57Z
2026-09-01 10:34:58,10.2,2.5,1010.5,NNW,329,2.4,6.4,58.5,0.0,,,0.0,541,1.9,n/a,2026-08-31T22:34:58Z
2026-09-01 10:39:59,10.5,2,1010.4,ESE,117,1.2,5.6,55.7,0.0,,,0.0,550,1.9,n/a,2026-08-31T22:39:59Z
2026-09-01 10:44:58,10.7,1.7,1010.3,SE,128,1.8,6.4,53.9,0.0,,,0.0,557,2,n/a,2026-08-31T22:44:58Z
2026-09-01 10:49:57,10.9,1.8,1010.3,SE,140,1.5,5.6,53.7,0.0,,,0.0,564,2,n/a,2026-08-31T22:49:57Z
2026-09-01 10:54:57,11.1,1.5,1010.4,West,268,1.5,5.6,51.7,0.0,,,0.0,573,2.1,n/a,2026-08-31T22:54:57Z
2026-09-01 10:59:54,11.2,1,1010.4,SSW,208,2.8,11.3,49.5,0.0,,,0.0,582,2.2,n/a,2026-08-31T22:59:54Z
2026-09-01 11:04:54,11.3,0.4,1010.3,West,270,5.8,11.3,47.3,0.0,,,0.0,587,2.2,n/a,2026-08-31T23:04:54Z
2026-09-01 11:09:58,11.3,0.1,1010.2,West,271,2.3,11.1,46.2,0.0,,,0.0,591,2.2,n/a,2026-08-31T23:09:58Z
2026-09-01 11:14:58,11.4,0.1,1010.2,West,273,4.3,9.7,45.7,0.0,,,0.0,596,2.3,n/a,2026-08-31T23:14:58Z
2026-09-01 11:19:56,11.4,-0.7,1010.0,West,275,3,12.9,43.3,0.0,,,0.0,603,2.3,n/a,2026-08-31T23:19:56Z
2026-09-01 11:24:55,11.4,-0.5,1009.9,West,276,3,13,43.6,0.0,,,0.0,606,2.4,n/a,2026-08-31T23:24:55Z
2026-09-01 11:29:59,11.6,-0.4,1009.8,WNW,286,2.6,6.4,43.7,0.0,,,0.0,612,2.4,n/a,2026-08-31T23:29:59Z
2026-09-01 11:34:57,11.8,0.4,1009.7,WNW,287,2.9,8,45.8,0.0,,,0.0,615,2.5,n/a,2026-08-31T23:34:57Z
2026-09-01 11:39:57,11.9,0.8,1009.6,WNW,295,0.9,6.4,46.5,0.0,,,0.0,621,2.5,n/a,2026-08-31T23:39:57Z
2026-09-01 11:44:56,12,0.3,1009.5,West,274,2.7,6.4,44.6,0.0,,,0.0,624,2.5,n/a,2026-08-31T23:44:56Z
2026-09-01 11:49:59,12.1,0.6,1009.5,West,268,2.2,6.4,45.1,0.0,,,0.0,626,2.5,n/a,2026-08-31T23:49:59Z
2026-09-01 11:54:57,12.3,0.6,1009.4,West,273,2.4,9.7,44.9,0.0,,,0.0,629,2.6,n/a,2026-08-31T23:54:57Z
2026-09-01 11:59:54,12.4,1.2,1009.3,West,276,2.8,9.7,46.4,0.0,,,0.0,629,2.6,n/a,2026-08-31T23:59:54Z
2026-09-01 12:04:59,12.5,1.7,1009.3,West,280,2.8,9.7,47.9,0.0,,,0.0,631,2.6,n/a,2026-09-01T00:04:59Z
2026-09-01 12:09:56,12.7,2,1009.2,West,270,4.4,11.3,48.3,0.0,,,0.0,635,2.6,n/a,2026-09-01T00:09:56Z
2026-09-01 12:14:54,12.8,2.2,1009.1,West,270,3.5,13,48.4,0.0,,,0.0,635,2.7,n/a,2026-09-01T00:14:54Z
2026-09-01 12:19:59,12.8,1.8,1009.1,West,279,4.8,14.8,47.2,0.0,,,0.0,635,2.7,n/a,2026-09-01T00:19:59Z
2026-09-01 12:24:58,12.7,2.3,1009.1,WNW,285,3.7,11.3,49.1,0.0,,,0.0,635,2.7,n/a,2026-09-01T00:24:58Z
2026-09-01 12:29:56,12.7,2.2,1009.0,WNW,291,4.3,14.8,49.1,0.0,,,0.0,635,2.7,n/a,2026-09-01T00:29:56Z
2026-09-01 12:34:55,12.7,2.1,1009.0,WNW,285,3.8,13,48.4,0.0,,,0.0,636,2.7,n/a,2026-09-01T00:34:55Z
2026-09-01 12:39:56,12.7,2.2,1008.9,WNW,299,5.8,13,48.6,0.0,,,0.0,635,2.7,n/a,2026-09-01T00:39:56Z
2026-09-01 12:44:59,12.6,1.8,1008.9,West,277,2.6,7.4,47.9,0.0,,,0.0,635,2.7,n/a,2026-09-01T00:44:59Z
2026-09-01 12:49:57,12.9,2.3,1008.9,West,268,2.6,6.4,48.7,0.0,,,0.0,633,2.6,n/a,2026-09-01T00:49:57Z
2026-09-01 12:54:56,13.2,2.2,1008.9,West,274,3.1,11.3,47.3,0.0,,,0.0,631,2.6,n/a,2026-09-01T00:54:56Z
2026-09-01 12:59:55,13.4,3,1008.8,WNW,293,3.6,8,49.4,0.0,,,0.0,629,2.6,n/a,2026-09-01T00:59:55Z
2026-09-01 13:04:59,13.4,2.7,1008.7,NW,307,5.3,11.3,48.3,0.0,,,0.0,628,2.6,n/a,2026-09-01T01:04:59Z
2026-09-01 13:09:57,13.3,2.6,1008.6,WNW,299,7.2,14.8,48.4,0.0,,,0.0,624,2.6,n/a,2026-09-01T01:09:57Z
2026-09-01 13:14:56,13.1,2.8,1008.5,NW,318,6.6,14.8,49.8,0.0,,,0.0,621,2.6,n/a,2026-09-01T01:14:56Z
2026-09-01 13:19:54,12.8,3.5,1008.6,NNE,19,4.7,11.1,53.2,0.0,,,0.0,617,2.5,n/a,2026-09-01T01:19:54Z
2026-09-01 13:24:57,12.6,3.7,1008.5,NNE,16,6,13,54.5,0.0,,,0.0,613,2.5,n/a,2026-09-01T01:24:57Z
2026-09-01 13:29:55,12.4,3.4,1008.4,NNE,15,5.2,11.3,54.3,0.0,,,0.0,608,2.5,n/a,2026-09-01T01:29:55Z
2026-09-01 13:34:59,12.5,3.8,1008.3,North,352,4.7,14.8,55.3,0.0,,,0.0,603,2.4,n/a,2026-09-01T01:34:59Z
2026-09-01 13:39:59,12.6,3.5,1008.2,North,350,5.3,11.1,53.8,0.0,,,0.0,599,2.4,n/a,2026-09-01T01:39:59Z
2026-09-01 13:44:55,12.6,3.2,1008.2,NNE,19,4.7,9.7,52.8,0.0,,,0.0,594,2.3,n/a,2026-09-01T01:44:55Z
2026-09-01 13:49:57,12.6,3.5,1008.2,NNW,334,4.9,13,54,0.0,,,0.0,591,2.3,n/a,2026-09-01T01:49:57Z
2026-09-01 13:54:57,12.8,3.5,1008.1,North,5,4,8,53.2,0.0,,,0.0,585,2.2,n/a,2026-09-01T01:54:57Z
2026-09-01 13:59:57,13,3.3,1007.9,NNE,24,3.8,8,51.7,0.0,,,0.0,578,2.2,n/a,2026-09-01T01:59:57Z
2026-09-01 14:04:59,13,3.2,1007.8,NNW,333,5.4,11.3,51.1,0.0,,,0.0,570,2.1,n/a,2026-09-01T02:04:59Z
2026-09-01 14:09:57,13.2,3.5,1007.7,North,355,5.6,12.9,52,0.0,,,0.0,564,2.1,n/a,2026-09-01T02:09:57Z
2026-09-01 14:14:55,13.1,3,1007.7,NNW,345,5.7,13,50.5,0.0,,,0.0,555,2,n/a,2026-09-01T02:14:55Z
2026-09-01 14:19:54,13,3.1,1007.6,North,8,4.3,11.3,51,0.0,,,0.0,550,2,n/a,2026-09-01T02:19:54Z
2026-09-01 14:24:57,12.9,2.4,1007.5,North,7,5.9,11.3,49,0.0,,,0.0,540,1.9,n/a,2026-09-01T02:24:57Z
2026-09-01 14:29:55,12.8,2.3,1007.5,NNE,33,4,9.3,49.1,0.0,,,0.0,533,1.8,n/a,2026-09-01T02:29:55Z
2026-09-01 14:34:58,12.8,2.9,1007.5,NE,42,3,8,50.9,0.0,,,0.0,522,1.8,n/a,2026-09-01T02:34:58Z
2026-09-01 14:39:53,12.8,2.9,1007.5,NE,56,5.4,11.3,51.2,0.0,,,0.0,515,1.7,n/a,2026-09-01T02:39:53Z
2026-09-01 14:44:54,12.6,2.3,1007.5,North,357,6.6,14.8,49.4,0.0,,,0.0,504,1.7,n/a,2026-09-01T02:44:54Z
2026-09-01 14:49:54,12.8,3.1,1007.4,NNE,17,1.8,6.4,51.7,0.0,,,0.0,496,1.6,n/a,2026-09-01T02:49:54Z
2026-09-01 14:54:59,13,3.1,1007.4,NNW,334,7.8,20.9,51,0.0,,,0.0,485,1.5,n/a,2026-09-01T02:54:59Z
2026-09-01 14:59:53,13.1,3.3,1007.2,NNW,342,6.7,14.8,51.5,0.0,,,0.0,482,1.5,n/a,2026-09-01T02:59:53Z
2026-09-01 15:04:58,13.1,3.2,1007.2,NNW,348,4.9,14.8,51.2,0.0,,,0.0,471,1.4,n/a,2026-09-01T03:04:58Z
2026-09-01 15:09:54,13.2,3.3,1007.0,NNW,340,5,11.3,51.1,0.0,,,0.0,459,1.3,n/a,2026-09-01T03:09:54Z
2026-09-01 15:14:54,13.3,3.5,1006.9,North,7,4.4,12.9,51.6,0.0,,,0.0,452,1.3,n/a,2026-09-01T03:14:54Z
2026-09-01 15:19:54,13.3,3.9,1006.9,NNW,340,6.9,13,52.8,0.0,,,0.0,436,1.2,n/a,2026-09-01T03:19:54Z
2026-09-01 15:24:58,13.2,4.1,1006.9,NNW,335,5.7,13,54,0.0,,,0.0,420,1.2,n/a,2026-09-01T03:24:58Z
2026-09-01 15:29:57,13.1,4.2,1006.9,NNE,21,5.3,13,54.7,0.0,,,0.0,406,1.1,n/a,2026-09-01T03:29:57Z
2026-09-01 15:34:56,12.7,3.6,1006.8,ENE,66,5.5,13,53.9,0.0,,,0.0,396,1,n/a,2026-09-01T03:34:56Z
2026-09-01 15:39:56,12.2,2.6,1006.9,NNW,348,6.8,14.8,52,0.0,,,0.0,381,1,n/a,2026-09-01T03:39:56Z
2026-09-01 15:44:55,12.2,2.2,1006.9,North,355,5.9,13,50.5,0.0,,,0.0,369,0.9,n/a,2026-09-01T03:44:55Z
2026-09-01 15:49:58,12.2,2.6,1006.9,North,350,5.5,18.5,51.7,0.0,,,0.0,381,0.9,n/a,2026-09-01T03:49:58Z
2026-09-01 15:54:54,12.2,2.6,1006.9,NNW,340,6.8,16.7,51.7,0.0,,,0.0,388,0.8,n/a,2026-09-01T03:54:54Z
2026-09-01 15:59:54,12.2,2.9,1006.8,NNW,339,6.9,14.8,52.8,0.0,,,0.0,371,0.7,n/a,2026-09-01T03:59:54Z
2026-09-01 16:04:54,12.2,3.5,1006.7,North,10,4.1,11.3,55.5,0.0,,,0.0,318,0.6,n/a,2026-09-01T04:04:54Z
2026-09-01 16:09:55,12.2,3.8,1006.7,North,6,4.9,13,56.6,0.0,,,0.0,302,0.6,n/a,2026-09-01T04:09:55Z
2026-09-01 16:14:54,12.1,4.2,1006.7,NE,41,4.7,13,58.5,0.0,,,0.0,292,0.5,n/a,2026-09-01T04:14:54Z
2026-09-01 16:19:59,11.9,4,1006.7,North,6,5.7,14.8,58.6,0.0,,,0.0,274,0.5,n/a,2026-09-01T04:19:59Z
2026-09-01 16:24:58,11.7,4.2,1006.6,NE,42,4.2,8,60.1,0.0,,,0.0,264,0.5,n/a,2026-09-01T04:24:58Z
2026-09-01 16:29:58,11.6,4.3,1006.5,NNE,21,4,8,61.2,0.0,,,0.0,241,0,n/a,2026-09-01T04:29:58Z
2026-09-01 16:34:56,11.5,4.1,1006.6,NE,51,3.4,9.7,60.6,0.0,,,0.0,220,0,n/a,2026-09-01T04:34:56Z
2026-09-01 16:39:57,11.5,4.2,1006.4,NNE,25,3.2,12.9,61.2,0.0,,,0.0,204,0,n/a,2026-09-01T04:39:57Z
2026-09-01 16:44:56,11.6,4.4,1006.5,NNE,12,4,13,61.2,0.0,,,0.0,186,0,n/a,2026-09-01T04:44:56Z
2026-09-01 16:49:54,11.4,4.5,1006.4,ENE,73,5.3,14.8,62.3,0.0,,,0.0,167,0,n/a,2026-09-01T04:49:54Z
2026-09-01 16:54:58,11,4.2,1006.3,ENE,67,5.5,12.9,63.2,0.0,,,0.0,148,0,n/a,2026-09-01T04:54:58Z
2026-09-01 16:59:54,10.9,4.2,1006.4,NNE,20,4.3,13,63.6,0.0,,,0.0,142,0,n/a,2026-09-01T04:59:54Z
2026-09-01 17:04:55,11,4.5,1006.4,NNE,25,3.7,11.3,64,0.0,,,0.0,142,0,n/a,2026-09-01T05:04:55Z
2026-09-01 17:09:56,11,4.5,1006.3,East,85,3.7,6.4,64.4,0.0,,,0.0,123,0,n/a,2026-09-01T05:09:56Z
2026-09-01 17:14:54,10.8,4.4,1006.2,East,91,2.9,8,65,0.0,,,0.0,93,0,n/a,2026-09-01T05:14:54Z
2026-09-01 17:19:58,10.7,4.4,1006.2,NE,56,3.3,9.7,65,0.0,,,0.0,91,0,n/a,2026-09-01T05:19:58Z
2026-09-01 17:24:56,10.5,4.4,1006.1,East,84,6.4,14.8,65.9,0.0,,,0.0,77,0,n/a,2026-09-01T05:24:56Z
2026-09-01 17:29:59,10.3,4.6,1006.1,East,83,6,11.3,67.8,0.0,,,0.0,60,0,n/a,2026-09-01T05:29:59Z
2026-09-01 17:34:58,10.1,4.7,1006.2,East,80,6.4,13,68.9,0.0,,,0.0,40,0,n/a,2026-09-01T05:34:58Z
2026-09-01 17:39:54,10,4.9,1006.1,East,81,5.3,11.1,70.6,0.0,,,0.0,25,0,n/a,2026-09-01T05:39:54Z
2026-09-01 17:44:55,9.9,5.1,1006.0,ENE,77,5.1,11.3,71.9,0.0,,,0.0,21,0,n/a,2026-09-01T05:44:55Z
2026-09-01 17:49:59,9.9,5.3,1006.0,East,86,5,9.7,73.4,0.0,,,0.0,19,0,n/a,2026-09-01T05:49:59Z
2026-09-01 17:54:55,9.8,5.5,1006.0,ESE,108,5,9.7,74.5,0.0,,,0.0,12,0,n/a,2026-09-01T05:54:55Z
2026-09-01 17:59:58,9.7,5.5,1006.0,ESE,118,4.7,9.3,75.1,0.0,,,0.0,9,0,n/a,2026-09-01T05:59:58Z
2026-09-01 18:04:56,9.7,5.7,1006.0,ESE,115,4.4,8,76,0.0,,,0.0,5,0,n/a,2026-09-01T06:04:56Z
2026-09-01 18:09:54,9.7,5.7,1006.0,ESE,118,4,6.4,76.3,0.0,,,0.0,0,0,n/a,2026-09-01T06:09:54Z
2026-09-01 18:14:57,9.7,5.8,1005.9,ESE,120,3.4,5.6,77,0.0,,,0.0,0,0,n/a,2026-09-01T06:14:57Z
2026-09-01 18:19:59,9.7,5.9,1006.0,ESE,121,3.4,6.4,77.7,0.0,,,0.0,0,0,n/a,2026-09-01T06:19:59Z
2026-09-01 18:24:59,9.7,6,1006.0,ESE,123,3.8,6.4,78,0.0,,,0.0,0,0,n/a,2026-09-01T06:24:59Z
2026-09-01 18:29:58,9.7,6.1,1005.9,SE,124,3.5,6.4,78.3,0.0,,,0.0,0,0,n/a,2026-09-01T06:29:58Z
2026-09-01 18:34:55,9.8,6.3,1005.7,ESE,120,2.7,5.6,79,0.0,,,0.0,0,0,n/a,2026-09-01T06:34:55Z
2026-09-01 18:39:55,9.8,6.3,1005.7,ESE,118,2,5.6,79,0.0,,,0.0,0,0,n/a,2026-09-01T06:39:55Z
2026-09-01 18:44:54,9.8,6.5,1005.7,ESE,119,3.1,6.4,79.8,0.0,,,0.0,0,0,n/a,2026-09-01T06:44:54Z
2026-09-01 18:49:53,9.8,6.5,1005.6,ESE,109,2.8,5.6,80,0.0,,,0.0,0,0,n/a,2026-09-01T06:49:53Z
2026-09-01 18:54:59,9.8,6.6,1005.6,SE,126,3.2,6.4,80.7,0.0,,,0.0,0,0,n/a,2026-09-01T06:54:59Z
2026-09-01 18:59:57,9.8,6.7,1005.8,SE,129,3,6.4,81,0.0,,,0.0,0,0,n/a,2026-09-01T06:59:57Z
2026-09-01 19:04:54,9.8,6.8,1005.8,SE,137,2.8,5.6,81.7,0.0,,,0.0,0,0,n/a,2026-09-01T07:04:54Z
2026-09-01 19:09:55,9.7,6.8,1005.7,SE,135,3.8,8,82,0.0,,,0.0,0,0,n/a,2026-09-01T07:09:55Z
2026-09-01 19:14:59,9.7,6.7,1005.8,SE,134,4,6.4,82,0.0,,,0.0,0,0,n/a,2026-09-01T07:14:59Z
2026-09-01 19:19:58,9.7,6.9,1005.8,SE,124,4.3,9.7,82.6,0.0,,,0.0,0,0,n/a,2026-09-01T07:19:58Z
2026-09-01 19:24:57,9.7,6.9,1006.1,SE,125,4.3,11.3,83,0.0,,,0.0,0,0,n/a,2026-09-01T07:24:57Z
2026-09-01 19:29:56,9.6,6.8,1006.1,SE,139,3.7,8,83,0.0,,,0.0,0,0,n/a,2026-09-01T07:29:56Z
2026-09-01 19:34:59,9.5,6.8,1006.0,SE,128,3.4,7.4,83,0.0,,,0.0,0,0,n/a,2026-09-01T07:34:59Z
2026-09-01 19:39:55,9.4,6.7,1006.1,SE,125,3.1,6.4,83,0.0,,,0.0,0,0,n/a,2026-09-01T07:39:55Z
2026-09-01 19:44:57,9.4,6.7,1006.1,ESE,117,2.4,6.4,83.1,0.0,,,0.0,0,0,n/a,2026-09-01T07:44:57Z
2026-09-01 19:49:56,9.4,6.8,1005.9,ESE,108,2.1,5.6,84,0.0,,,0.0,0,0,n/a,2026-09-01T07:49:56Z
2026-09-01 19:54:56,9.3,6.7,1006.0,ESE,109,0.7,3.7,83.2,0.0,,,0.0,0,0,n/a,2026-09-01T07:54:56Z
2026-09-01 19:59:54,9.3,6.6,1006.0,ESE,109,1,3.7,83,0.0,,,0.0,0,0,n/a,2026-09-01T07:59:54Z
2026-09-01 20:04:58,9.3,6.6,1006.0,ESE,109,1.9,5.6,83,0.0,,,0.0,0,0,n/a,2026-09-01T08:04:58Z
2026-09-01 20:09:59,9.3,6.5,1006.1,ESE,109,0.4,3.7,83,0.0,,,0.0,0,0,n/a,2026-09-01T08:09:59Z
2026-09-01 20:14:57,9.2,6.5,1006.2,ESE,109,0.7,3.7,83,0.0,,,0.0,0,0,n/a,2026-09-01T08:14:57Z
2026-09-01 20:19:56,9.2,6.4,1006.1,ESE,109,1.1,3.7,83,0.0,,,0.0,0,0,n/a,2026-09-01T08:19:56Z
2026-09-01 20:24:58,9.2,6.4,1006.1,ESE,107,0.2,1.9,83,0.0,,,0.0,0,0,n/a,2026-09-01T08:24:58Z
2026-09-01 20:29:56,9.1,6.4,1006.1,ESE,107,0,1.9,83,0.0,,,0.0,0,0,n/a,2026-09-01T08:29:56Z
2026-09-01 20:34:54,9,6.3,1006.0,ESE,107,0,1.6,83,0.0,,,0.0,0,0,n/a,2026-09-01T08:34:54Z
2026-09-01 20:39:54,8.9,6.1,1006.0,ESE,107,0.2,1.9,83,0.0,,,0.0,0,0,n/a,2026-09-01T08:39:54Z
2026-09-01 20:44:58,8.8,6,1005.9,ESE,107,0,1.9,83,0.0,,,0.0,0,0,n/a,2026-09-01T08:44:58Z
2026-09-01 20:49:55,8.6,5.9,1006.1,ESE,107,0,0,83,0.0,,,0.0,0,0,n/a,2026-09-01T08:49:55Z
2026-09-01 20:54:54,8.5,5.8,1006.1,ESE,107,0,0,83,0.0,,,0.0,0,0,n/a,2026-09-01T08:54:54Z
2026-09-01 20:59:55,8.3,5.6,1006.1,ESE,107,0.5,1.9,83,0.0,,,0.0,0,0,n/a,2026-09-01T08:59:55Z
2026-09-01 21:04:55,8.2,5.5,1006.1,ESE,107,0.2,1.9,83.3,0.0,,,0.0,0,0,n/a,2026-09-01T09:04:55Z
2026-09-01 21:09:56,8,5.5,1006.2,ESE,107,0.3,3.7,84,0.0,,,0.0,0,0,n/a,2026-09-01T09:09:56Z
2026-09-01 21:14:55,7.9,5.3,1006.1,ESE,107,0,1.9,84,0.0,,,0.0,0,0,n/a,2026-09-01T09:14:55Z
2026-09-01 21:19:59,7.7,5.1,1006.0,ESE,107,0,1.6,84,0.0,,,0.0,0,0,n/a,2026-09-01T09:19:59Z
2026-09-01 21:24:59,7.5,5.1,1006.1,ESE,107,0.3,3.2,84.5,0.0,,,0.0,0,0,n/a,2026-09-01T09:24:59Z
2026-09-01 21:29:57,7.4,5,1006.1,ESE,107,0.1,3.7,85,0.0,,,0.0,0,0,n/a,2026-09-01T09:29:57Z
2026-09-01 21:34:55,7.2,4.9,1006.1,ESE,107,0.4,1.9,85,0.0,,,0.0,0,0,n/a,2026-09-01T09:34:55Z
2026-09-01 21:39:55,7.1,4.7,1006.1,ESE,107,0.7,3.7,85,0.0,,,0.0,0,0,n/a,2026-09-01T09:39:55Z
2026-09-01 21:44:54,6.8,4.6,1006.0,ESE,107,0.1,1.9,85.3,0.0,,,0.0,0,0,n/a,2026-09-01T09:44:54Z
2026-09-01 21:49:58,6.7,4.5,1006.1,ESE,107,0,0,86,0.0,,,0.0,0,0,n/a,2026-09-01T09:49:58Z
2026-09-01 21:54:58,6.6,4.5,1006.2,ESE,107,0,0,86.2,0.0,,,0.0,0,0,n/a,2026-09-01T09:54:58Z
2026-09-01 21:59:56,6.6,4.6,1006.3,ESE,107,0,0,87,0.0,,,0.0,0,0,n/a,2026-09-01T09:59:56Z
2026-09-01 22:04:55,6.5,4.5,1006.3,ESE,107,0,0,87,0.0,,,0.0,0,0,n/a,2026-09-01T10:04:55Z
2026-09-01 22:09:57,6.5,4.5,1006.3,ESE,107,0,0,87,0.0,,,0.0,0,0,n/a,2026-09-01T10:09:57Z
2026-09-01 22:14:55,6.4,4.5,1006.2,ESE,107,0,0,87.9,0.0,,,0.0,0,0,n/a,2026-09-01T10:14:55Z
2026-09-01 22:19:54,6.3,4.5,1006.2,ESE,107,0,0,88,0.0,,,0.0,0,0,n/a,2026-09-01T10:19:54Z
2026-09-01 22:24:58,6.3,4.4,1006.2,ESE,107,0,0,88,0.0,,,0.0,0,0,n/a,2026-09-01T10:24:58Z
2026-09-01 22:29:56,6.2,4.4,1006.1,ESE,107,0,0,88,0.0,,,0.0,0,0,n/a,2026-09-01T10:29:56Z
2026-09-01 22:34:54,6.1,4.3,1006.1,ESE,107,0,0,88,0.0,,,0.0,0,0,n/a,2026-09-01T10:34:54Z
2026-09-01 22:39:55,6.1,4.2,1006.2,ESE,107,0,0,88,0.0,,,0.0,0,0,n/a,2026-09-01T10:39:55Z
2026-09-01 22:44:54,6,4.2,1006.3,ESE,107,0,0,88,0.0,,,0.0,0,0,n/a,2026-09-01T10:44:54Z
2026-09-01 22:49:59,5.9,4.1,1006.2,ESE,107,0,0,88,0.0,,,0.0,0,0,n/a,2026-09-01T10:49:59Z
2026-09-01 22:54:57,5.9,4.1,1006.4,ESE,107,0,0,88.2,0.0,,,0.0,0,0,n/a,2026-09-01T10:54:57Z
2026-09-01 22:59:54,5.9,4.2,1006.4,ESE,107,0,0,89,0.0,,,0.0,0,0,n/a,2026-09-01T10:59:54Z
2026-09-01 23:04:59,5.9,4.2,1006.3,ESE,107,0,0,89,0.0,,,0.0,0,0,n/a,2026-09-01T11:04:59Z
2026-09-01 23:09:58,5.8,4.2,1006.3,ESE,107,0,0,89,0.0,,,0.0,0,0,n/a,2026-09-01T11:09:58Z
2026-09-01 23:14:56,5.8,4.1,1006.3,ESE,107,0,0,89,0.0,,,0.0,0,0,n/a,2026-09-01T11:14:56Z
2026-09-01 23:19:56,5.7,4.1,1006.2,ESE,107,0,0,89,0.0,,,0.0,0,0,n/a,2026-09-01T11:19:56Z
2026-09-01 23:24:55,5.7,4,1006.2,ESE,107,0,0,89,0.0,,,0.0,0,0,n/a,2026-09-01T11:24:55Z